sat.trackr.live / text

‹ back to catalog

STARLINK-37562

NORAD 69208 · 2026-114AC

PAYLOAD ACTIVE UNKNOWN

§ Identity

Operator
Country
US
Launch date
2026-05-25
Launch site
AFETR
Launch vehicle
Mass (kg)
RCS (m²)

Purposes: comms

External: N2YO · Heavens-Above · Gunter

§ Orbital elements

Epoch: 2026-09-20T04:46:44.115744Z

Period
93.85 min
Inclination
53.1587°
Eccentricity
0.0001332
Mean motion
15.34364618 rev/d
Perigee alt
461.9 km
Apogee alt
463.7 km
Semi-major
6,840.9 km
B*
5.1840e-4
RAAN
114.8607°
Arg perigee
85.3703°
Mean anomaly
274.7452°
Rev number
1,941

§ Raw data

STARLINK-375621 69208U 26114AC  26263.19912171  .00017159  00000+0  51840-3 0  99922 69208  53.1587 114.8607 0001332  85.3703 274.7452 15.34364618 19415

JSON: /api/v1/satellites/69208 · /tle

For live sub-satellite position, see the globe view (requires WebGL).

§ Visibility from observer

Set your observer location to see the next 7 days of passes ≥ 10°. The values pass through the URL so the page stays shareable.

No JS? Fill the form by hand. The geolocation button needs JavaScript.